STARLINK-2001 (47596 NORAD) Tracking and Keplerian Element Data

This shows tracking and keplerian element data for the satellite.

Feedback or suggestion? Click here.




ElementValue
Catalog47596
NameSTARLINK-2001
Epoch Orbit1060
Epoch Day99.91667824
Epoch Year2021
RAAN178.657
Inclination53.0541
Eccentricity0.0001234
Argument of Perigee70.3917
Mean Anonmoly100.4952
Mean Motion15.06430601
Decay Rate-0.00027759
L11 47596U 21009BA 21099.91667824 -.00027759 00000-0 -18504-2 0 9999
L22 47596 53.0541 178.6570 0001234 70.3917 100.4952 15.06430601 10606

Live tracking and technical data element details for STARLINK-2001 (NORAD 47596). STARLINK-2001 can be tracked NOW for your location showing map with azimuth and elevation plus other details from your city location.

Track the satellite on the map from your city or location and see movement details for azimuth, elevation, latitude, longitude, range, height, and movement on the map or in text.







IsCatalogInMostPopularTable: catalog: 47596, numindb: 18
Update: records affected: 1



GetName: 47596 STARLINK-2001

Hit Count: updated at: Sat, 10 Apr 2021 18:35:46 GMT